Find Starlink 31102

NORAD ID: 58715 Int'l Des: 2024-002 Owner: SPXS Country: US Constellation: starlink operational
LEOCIRCULAR

現在のビュー

3D地球を読み込み中...

About Starlink 31102

Starlink 31102 (NORAD 58715) is a starlink constellation satellite (v2 mini) launched Jan 3, 2024 by SPXS of US. It operates in LEO, CIRCULAR orbit with a mass of 730.00 kg.

次回通過

Passes for default location (London). Set your location on the main map for personalized predictions.

高度履歴

Loading altitude history...

軌道要素

1 58715U 24002L 26237.80660728 -.00000133 00000-0 72016-5 0 9990
2 58715 53.1593 161.8676 0001386 94.1627 265.9534 15.34393513147942
Epoch: Aug 25, 2026 • Age: 10 hours

現在のステータス

高度 463.2 km
遠地点 / 近地点 N/A
速度 7.64 km/s
衛星直下点 24.06°N, 131.93°E
打ち上げ日 Jan 3, 2024
運用期間 2.6 years
タイプ internet

技術仕様

分類 Payload
質量 730.00 kg
乾燥質量 700.00 kg
総質量 730.00 kg
長さ 0.30 m
直径 4.10 m
スパン 29.00 m
形状 Box + pan
製造者 SPXS
バスタイプ Starlink V2M
フェーズステータス In Orbit
所有者/国 SPXS/US

Most Searched